Theta_e
318 317 317 317 317 318 318 318 319 319 319 319 320 320 320 321 320 320 313 322 325 345 348 340 342 345 346 341 342 341 327 322 320 319 326 332 328 335 340 336 338 339 341 344 347
316 316 316 316 317 317 317 317 317 317 318 318 319 319 319 320 317 314 329 344 344 350 339 335 335 340 336 336 336 333 323 321 325 326 325 330 329 331 334 333 334 337 344 345 346
316 316 316 316 316 316 316 316 317 317 317 317 318 318 319 320 315 315 346 344 347 353 329 336 339 337 330 331 331 331 323 326 327 328 328 329 332 334 329 329 334 335 340 343 344
315 315 315 316 316 316 316 316 316 316 316 317 317 318 319 319 305 327 346 343 346 334 325 331 333 331 326 325 330 325 330 328 327 329 327 326 333 331 331 330 337 341 343 343 342
315 315 316 315 315 316 316 317 316 315 315 316 317 317 317 312 311 330 351 343 327 327 322 327 327 329 324 325 328 325 328 330 332 330 328 327 326 330 331 334 338 342 343 342 343
315 316 316 316 316 316 316 316 315 314 315 317 318 317 315 307 321 322 327 328 327 328 323 327 326 330 327 325 324 327 328 329 329 328 327 324 324 329 334 337 337 340 341 342 342
314 315 315 315 316 316 315 314 314 316 319 321 321 317 314 314 320 318 323 325 331 330 322 327 328 328 328 323 327 327 322 326 328 324 323 326 320 325 336 338 337 339 340 341 342
314 314 315 315 315 314 313 312 313 320 320 320 321 318 313 324 326 318 324 326 332 333 329 329 329 327 326 326 323 320 321 317 323 323 324 323 315 325 335 338 336 338 338 340 341
314 314 314 314 314 312 311 312 315 320 318 320 319 317 314 321 316 321 321 324 330 333 333 330 328 323 324 318 314 315 311 314 318 324 322 321 318 326 333 336 336 338 339 338 340
314 314 313 313 312 311 310 312 319 319 322 323 322 312 315 314 318 318 320 325 327 328 326 324 322 317 318 315 306 309 310 313 314 321 321 319 319 324 332 333 334 337 339 339 338
313 313 313 312 311 310 311 315 312 315 319 315 316 314 317 320 319 315 318 322 326 324 316 320 314 312 312 317 316 315 313 312 317 321 319 318 320 323 327 330 331 336 339 339 339
313 313 312 311 310 310 312 307 306 306 300 307 308 308 317 319 313 313 321 315 316 315 316 312 309 314 315 313 313 313 312 312 316 319 319 318 317 322 325 328 331 334 337 339 341
313 312 311 310 310 310 310 308 312 311 300 303 308 308 309 317 313 315 314 314 313 314 313 308 309 313 310 309 308 310 309 311 312 316 318 317 315 318 323 327 332 334 339 340 341
313 312 310 308 308 310 308 311 313 312 296 301 306 309 311 313 311 319 314 313 314 312 315 310 313 310 309 307 309 305 311 312 311 311 308 316 306 316 320 321 327 331 336 338 340
312 311 309 306 310 308 308 311 312 309 289 307 307 315 313 308 313 313 317 313 310 310 313 309 309 309 307 308 310 307 312 310 310 310 310 311 309 315 319 317 321 326 331 337 339
311 309 308 309 310 309 311 310 309 295 289 303 306 305 306 308 310 315 314 313 315 311 312 311 315 312 311 312 312 313 310 309 309 307 302 308 309 311 316 319 322 325 328 333 337
309 307 308 310 304 310 310 306 293 288 303 301 301 306 306 306 306 311 309 304 304 302 303 308 310 313 313 310 312 310 306 299 298 299 299 309 307 311 319 321 323 324 327 330 335
306 305 310 310 311 310 307 297 286 294 297 302 301 302 300 306 307 308 308 306 306 306 305 303 301 309 312 311 308 308 307 301 295 296 300 308 304 310 320 323 325 327 328 332 334
306 312 310 309 310 309 301 289 290 294 297 295 298 299 300 304 306 307 307 306 308 308 303 304 304 312 313 313 313 308 305 310 305 306 303 305 309 315 319 320 322 324 326 328 333
308 308 308 310 311 307 297 290 292 296 296 296 292 299 298 302 303 304 305 309 309 310 313 310 305 311 312 313 313 312 312 303 305 299 299 304 307 307 314 317 321 322 324 327 331
308 301 307 310 310 301 289 291 292 297 297 294 293 293 294 295 298 303 304 307 309 310 313 311 310 309 312 308 307 308 308 308 308 305 301 301 305 316 317 319 319 322 324 327 329
305 297 308 309 297 296 290 293 293 295 298 296 297 296 294 295 295 299 303 305 305 308 307 312 309 305 307 312 313 312 309 310 303 304 305 306 308 317 318 319 321 322 325 327 329
301 301 309 306 291 292 294 293 295 294 294 294 293 295 298 295 293 296 300 306 305 308 307 312 307 303 306 309 311 308 310 311 310 309 306 302 305 318 318 318 322 322 325 328 330
302 295 300 301 299 294 292 291 290 295 293 295 295 296 294 294 297 296 297 302 304 305 308 309 307 305 304 307 309 306 308 310 310 305 306 307 309 313 316 318 321 323 325 327 330
301 297 298 292 294 294 294 292 290 289 294 295 293 292 291 290 293 292 297 300 304 307 307 308 304 307 309 311 311 308 307 308 307 309 305 309 310 314 316 318 320 322 324 324 327
297 295 298 294 295 294 294 291 290 291 292 291 291 292 292 291 291 289 294 296 297 302 303 307 302 307 306 309 307 306 310 309 309 309 310 310 311 318 320 320 320 320 321 321 322
304 304 299 295 293 291 291 292 291 292 294 295 293 291 291 293 297 299 299 300 299 298 299 301 302 304 301 307 306 301 307 309 310 312 311 307 313 318 317 317 318 320 321 321 322
Wind_Speed
20 20 21 21 22 22 21 21 21 20 20 18 17 14 15 15 19 16 17 10 13 15 13 18 22 20 20 19 19 12 12 8 4 7 17 8 16 7 11 13 9 4 20 26 26
21 21 22 22 22 22 22 22 22 22 21 20 17 15 14 14 17 23 14 13 13 18 19 22 24 21 18 19 16 15 3 13 8 10 11 7 11 10 12 12 14 12 24 28 27
23 23 23 24 24 23 23 24 23 24 21 19 17 14 15 15 16 15 6 23 19 22 22 21 20 21 22 17 20 18 9 26 7 12 7 16 10 8 14 12 15 19 26 28 27
24 24 24 25 25 25 25 25 25 24 22 18 16 14 12 14 8 10 5 18 22 25 23 21 23 23 21 23 18 19 8 25 7 9 4 3 10 10 8 15 18 20 24 27 26
24 24 24 25 26 26 26 26 25 24 21 18 15 11 10 12 17 5 12 13 21 26 27 25 25 24 23 20 17 19 19 10 6 7 6 2 3 4 9 9 19 21 24 25 23
24 24 24 25 26 26 26 27 25 25 20 16 12 9 11 20 11 14 11 15 20 28 27 25 23 23 22 21 20 13 17 14 10 11 12 10 9 9 11 13 20 22 24 24 24
25 25 26 26 27 28 27 27 27 22 16 12 11 13 16 20 4 5 15 18 20 26 25 24 21 19 24 15 18 19 10 16 15 14 9 9 10 15 18 17 21 22 22 23 24
25 25 26 27 29 29 28 26 24 19 6 5 15 13 12 6 20 11 15 19 20 24 21 20 22 21 24 18 12 19 19 19 19 20 15 12 13 16 20 21 20 22 21 22 24
25 25 27 27 28 29 29 24 19 6 3 13 13 15 13 5 15 22 17 21 21 21 17 15 20 18 21 21 15 20 18 24 21 22 18 17 16 18 18 20 21 19 20 20 22
26 27 28 29 29 30 28 24 6 5 11 10 8 9 11 12 15 20 22 21 22 20 19 18 15 18 21 21 21 21 24 21 23 18 14 18 19 16 19 20 19 20 20 21 22
26 27 28 30 31 30 19 9 5 10 15 16 8 17 4 11 3 17 24 22 22 22 22 24 20 27 28 26 22 22 21 24 18 23 23 17 18 15 17 17 17 20 20 21 21
26 28 28 30 31 28 19 12 10 9 19 23 30 29 27 6 11 17 25 24 25 27 26 20 28 25 24 26 27 26 26 24 22 13 11 15 20 17 14 15 15 19 20 21 21
26 28 30 30 30 17 6 12 13 14 12 20 28 27 25 25 17 24 31 30 30 31 32 28 19 27 26 25 28 28 28 24 20 18 19 14 19 17 15 17 16 17 20 20 23
25 27 27 31 12 12 8 16 13 10 10 11 11 9 26 21 22 25 32 33 20 34 32 30 26 26 27 27 26 27 26 23 18 20 17 21 15 20 17 18 19 19 20 21 22
24 25 26 15 14 9 14 16 13 8 10 14 12 7 14 26 11 31 31 34 26 26 30 31 28 23 28 26 26 23 19 24 23 20 19 22 20 16 25 25 21 20 21 22 22
26 26 24 2 11 13 16 16 8 10 12 7 8 10 15 24 25 25 29 33 30 27 28 29 21 25 21 24 22 21 16 19 23 19 21 24 21 19 17 20 24 24 22 22 22
25 25 18 9 10 15 14 11 11 14 3 13 12 7 16 20 25 19 33 34 31 30 29 28 32 23 21 22 24 18 20 13 17 20 16 25 26 18 20 19 18 20 22 20 18
29 29 8 9 12 13 11 12 16 19 16 23 21 23 20 20 23 24 29 28 36 32 19 23 27 34 21 27 24 26 25 15 21 18 17 24 27 23 25 15 18 20 20 21 21
31 6 4 10 12 8 11 12 15 13 19 19 27 22 19 24 15 25 28 28 31 34 31 25 31 31 26 23 27 23 29 26 23 23 15 19 28 25 21 26 19 15 22 21 23
11 13 3 14 12 9 11 15 20 15 19 16 22 19 23 12 14 20 28 23 28 36 30 28 20 28 32 25 28 25 24 24 16 20 19 14 15 18 20 15 26 25 17 22 19
9 8 10 15 14 10 7 10 10 18 13 14 22 22 18 23 28 17 17 7 7 12 34 33 22 16 25 29 26 26 22 25 20 18 13 11 11 16 19 19 18 19 25 21 19
8 8 10 13 11 5 8 10 9 14 14 15 21 21 17 11 18 20 17 12 12 13 18 35 13 22 31 28 26 26 29 27 18 24 17 13 1 10 9 10 19 19 18 22 21
9 9 4 10 8 10 13 16 10 12 11 11 10 18 21 18 11 16 16 10 11 15 8 7 18 17 23 27 28 30 29 23 26 18 20 15 7 9 5 2 13 15 15 16 17
8 6 7 9 6 9 11 17 14 5 7 13 8 11 20 20 17 12 12 14 8 10 15 10 17 23 18 23 22 29 29 29 24 20 17 19 15 13 8 8 6 7 7 10 8
5 7 7 8 10 13 15 13 13 9 10 14 4 7 9 10 18 11 10 16 8 6 11 8 15 20 26 18 20 28 29 30 30 23 24 15 19 15 13 11 12 12 9 5 6
7 6 6 10 9 14 15 9 13 13 17 15 9 15 9 11 13 15 15 11 7 15 12 11 12 20 24 24 5 15 26 31 29 27 24 23 14 18 17 11 9 7 6 5 6
6 8 6 9 9 10 11 15 12 10 12 9 15 13 16 7 15 17 14 18 16 15 14 12 9 13 16 21 10 16 20 20 24 27 22 22 19 9 6 4 3 6 8 9 9
Wind_Direction
354 351 347 345 341 339 335 331 327 324 321 319 317 314 310 307 297 239 242 243 202 168 212 184 199 199 212 221 233 253 256 261 121 77 110 149 97 64 76 125 135 108 135 140 156
353 349 346 343 339 336 331 327 323 320 317 314 311 308 305 310 283 264 241 219 158 174 199 187 193 196 210 219 222 235 63 284 109 74 88 86 117 109 142 146 127 124 119 145 157
351 348 344 340 336 333 329 325 320 316 313 309 305 302 300 301 273 253 359 172 165 184 212 197 196 202 216 223 220 229 196 249 112 61 352 126 128 143 123 162 151 135 145 154 158
348 344 340 336 332 330 327 323 318 313 308 302 296 295 296 273 262 72 116 159 169 195 218 198 206 205 220 221 226 243 184 245 125 113 136 35 132 143 165 130 144 140 154 159 166
345 340 335 331 329 327 324 320 316 310 302 292 281 275 265 221 249 106 123 166 180 201 210 198 207 204 217 225 224 230 264 206 266 243 235 128 223 151 141 133 137 144 159 169 172
343 338 334 330 329 326 324 321 314 308 298 282 255 228 234 247 258 207 144 168 186 198 207 202 209 210 227 236 219 225 240 257 235 230 221 213 170 216 147 152 144 156 167 173 178
342 336 333 330 328 326 324 322 316 307 294 261 212 220 235 237 187 225 199 190 193 201 206 206 214 212 230 244 242 243 250 225 245 241 226 219 214 193 145 162 157 164 171 175 182
339 335 332 329 327 326 323 320 316 309 335 223 175 209 253 228 237 224 208 200 198 208 221 206 216 224 228 245 221 228 242 239 219 218 219 224 214 194 159 169 171 171 175 177 184
336 333 332 329 326 323 319 314 305 331 113 145 175 229 256 129 216 216 213 202 193 204 217 213 214 222 220 238 223 225 226 222 228 208 218 207 248 163 171 173 177 178 178 181 183
335 333 332 328 326 322 315 294 239 180 190 207 272 210 242 226 205 210 207 209 196 194 201 215 212 211 225 213 221 217 218 227 218 197 208 199 232 174 167 177 185 181 180 185 185
333 332 332 327 325 319 316 288 235 197 233 256 193 248 330 214 182 194 194 194 201 197 201 201 203 213 211 218 226 240 224 227 227 213 194 218 223 208 172 186 197 176 190 187 188
333 331 331 326 321 318 304 25 32 307 293 269 258 258 258 264 212 196 184 193 196 198 200 185 221 214 220 216 226 231 242 231 226 214 227 216 224 226 196 185 209 184 189 190 185
334 331 329 325 318 304 21 18 334 321 269 283 238 232 219 226 224 194 192 199 195 200 199 210 209 216 212 219 214 227 229 235 234 215 221 238 237 228 225 183 196 203 189 192 189
328 328 329 328 285 331 26 342 328 320 275 250 200 219 210 197 232 237 192 200 193 207 205 221 224 195 216 217 216 220 222 239 239 241 218 205 234 218 223 197 187 202 193 195 194
327 326 325 326 306 335 341 323 322 261 274 117 128 98 190 192 159 200 184 205 209 207 208 209 218 203 209 213 216 228 218 218 235 242 247 241 220 229 200 212 194 200 198 195 194
330 324 327 327 260 358 324 314 269 232 240 166 123 191 186 204 242 169 192 209 219 211 211 228 207 224 212 216 216 220 227 228 217 232 237 234 240 231 227 208 199 191 202 196 191
322 315 314 303 332 323 320 287 239 243 258 28 352 304 216 196 222 183 187 193 206 213 215 212 228 211 227 210 206 206 208 204 215 216 228 218 232 233 230 219 207 203 199 199 189
320 310 227 269 326 321 298 270 252 275 12 355 326 312 291 267 200 208 192 199 210 208 210 210 212 222 198 212 200 201 210 216 208 216 224 228 223 226 236 248 233 198 209 190 187
313 300 266 351 324 308 282 267 256 315 354 338 319 276 245 232 248 213 208 211 203 218 218 202 222 194 209 208 212 192 215 218 238 212 233 214 218 237 229 217 224 221 199 204 177
315 293 36 346 315 279 262 272 360 357 332 328 301 312 331 329 206 245 211 222 216 210 233 243 210 216 198 206 214 229 204 215 235 253 223 232 236 204 204 216 206 207 211 210 198
270 298 37 334 285 274 328 353 329 318 330 322 310 302 321 326 317 277 243 91 308 244 211 239 248 232 203 202 198 207 212 213 229 233 241 241 224 220 190 206 213 208 207 209 200
302 316 25 313 294 355 355 337 300 327 359 340 317 288 282 309 300 303 300 50 353 306 271 218 236 238 201 197 213 213 213 201 222 216 240 276 129 30 154 195 189 211 207 211 207
319 300 136 313 356 347 344 322 312 342 347 332 327 342 307 292 298 329 329 10 347 305 357 199 227 222 227 191 200 220 204 216 213 235 212 228 190 112 110 169 180 196 199 203 201
302 305 354 304 359 329 348 304 323 350 343 323 354 350 340 306 269 272 323 322 329 346 334 304 248 229 220 197 185 209 209 213 217 218 224 206 226 118 117 151 146 166 155 178 199
283 348 25 309 342 333 294 293 313 336 341 315 110 331 336 303 318 6 314 314 291 37 307 256 240 240 252 248 207 197 214 212 215 218 224 204 210 161 145 136 139 130 110 89 137
311 339 324 294 303 293 295 295 329 341 318 308 333 331 290 290 288 301 306 320 337 335 331 303 259 251 249 250 213 267 208 216 212 220 223 234 220 190 147 154 179 190 201 208 246
337 315 304 286 285 294 309 319 316 326 300 310 325 313 299 320 299 300 272 281 287 293 304 307 275 234 233 237 212 239 240 228 220 212 219 219 232 245 180 165 229 249 246 247 256